Preview of NWS' New Version of Forecast
This preview is not operational and should not be used for support decisions.

Regional Weather Roundup (RWR)

Issued by National Weather Service (NWS)

                            
000
ASUS43 KLOT 201008
RWRIL 

ILLINOIS REGIONAL WEATHER ROUNDUP
NATIONAL WEATHER SERVICE CHICAGO/ROMEOVILLE IL
400 AM CST WED FEB 20 2019

NOTE: "FAIR" INDICATES FEW OR NO CLOUDS BELOW 12,000 FEET WITH NO
SIGNIFICANT WEATHER AND/OR OBSTRUCTIONS TO VISIBILITY.

* THESE STATIONS ARE NOT UNDER NWS QUALITY CONTROL. THEY ALSO MAY NOT
  REPORT WEATHER SUCH AS PRECIPITATION OR FOG.

ILZ001-002-007-009-015-016-024-201100-
NORTHWEST ILLINOIS
  
CITY           SKY/WX    TMP DP  RH WIND       PRES   REMARKS
MOLINE         LGT SNOW  29  26  89 E18       29.98F FOG     WCI  16  
STERLING*      FLURRIES  27  25  92 E20       30.03F WCI  13          
SAVANNA*       LGT SNOW  27  25  93 E14       30.03F WCI  15          
$$

ILZ003-004-008-010-011-017-018-201100-
NORTH CENTRAL ILLINOIS
  
CITY           SKY/WX    TMP DP  RH WIND       PRES   REMARKS
ROCKFORD       LGT SNOW  28  21  75 E12       30.10F WCI  18          
FREEPORT*      LGT SNOW  26  23  88 E13       30.09F WCI  15          
ROCHELLE*      LGT SNOW  27  25  94 E15       30.08F WCI  15          
DE KALB*       FLURRIES  28  23  80 E16       30.09F WCI  17          
PERU*          CLOUDY    28  25  86 E20       30.04F WCI  15          
$$

ILZ005-006-012>014-019>023-201100-
NORTHEAST ILLINOIS
  
CITY           SKY/WX    TMP DP  RH WIND       PRES   REMARKS
CHICAGO-OHARE  CLOUDY    29  23  78 E12       30.10F WCI  19          
CHICAGO-MIDWAY CLOUDY    30  23  75 E13       30.12F WCI  20          
AURORA         LGT SNOW  29  22  75 E14       30.08F WCI  18          
LANSING*       LGT SNOW  30  24  79 E12       30.12F WCI  20          
JOLIET*        LGT SNOW  31  26  81 E12G17    30.09F WCI  22          
WAUKEGAN       CLOUDY    30  22  72 E13G23    30.13F WCI  20          
DUPAGE AIRPORT CLOUDY    30  21  69 E13       30.08F WCI  20          
KANKAKEE*      MIX PCPN  29  28  95 E12       30.09F WCI  20          
WHEELING       CLOUDY    31  22  69 E10G18    30.13F WCI  22          
MORRIS*        LGT SNOW  29  27  91 E16       30.06F WCI  18          
ROMEOVILLE*    LGT SNOW  29  24  82 E10       30.10F WCI  20          
NORTHERLY ISL    N/A     29  24  82 E13         N/A  WCI  19          
$$

LMZ740>746-201100-
SOUTHERN LAKE MICHIGAN
  
STATION/POSITION SKY/WX   TEMP    WIND        PRES    VSBY  WAVE
                          AIR SEA DIR/SP/G                  HT/PER
                          (F)     (DEG/KT/KT) (MB)    (MI)  (FT/S)
HARRISON CRIB              31     100/ 18/ 20   N/A
NORTHERLY ISL              29      90/ 10/ 15   N/A
CALUMET HARBOR             29      80/ 10/ 14 1019.4F
BURNS HARBOR               30      90/  6/  8 1021.3F
MICHIGAN CITY              29      80/ 11/ 16   N/A
$$

ILZ025>027-034>036-040-047-049-050-058-095>099-201100-
WEST-CENTRAL ILLINOIS
  
CITY           SKY/WX    TMP DP  RH WIND       PRES   REMARKS
QUINCY         FRZ RAIN  31  28  89 SE9       29.89R FOG     WCI  23  
GALESBURG*     LGT SNOW  29  26  90 E15G21    29.93F WCI  18          
MACOMB*        CLOUDY    29  27  92 E21G28    29.90F WCI  16          
JACKSONVILLE*  CLOUDY    32  31  96 E12       29.87F FOG     WCI  23  
PITTSFIELD*    CLOUDY    32  32  99 E6        29.90R WCI  26          
$$

ILZ028>032-037-038-041>044-048-051>054-059>061-201100-
CENTRAL ILLINOIS
  
CITY           SKY/WX    TMP DP  RH WIND       PRES   REMARKS
PONTIAC        LGT SNOW  29  29  99 E21       30.03F WCI  16          
BLOOMINGTON    LGT SNOW  29  28  96 E20       29.97F FOG     WCI  16  
DECATUR        CLOUDY    32  30  92 E15       29.92F FOG     WCI  22  
PEORIA         FRZ RAIN  30  27  88 E16       29.94F WCI  19          
LACON*         LGT SNOW  29  26  88 E18G24    29.99F WCI  17          
LINCOLN*       DRIZZLE   32  32  97 E13G21    29.92F WCI  23          
SPRINGFIELD    FRZ RAIN  32  32 100 E18       29.87F FOG     WCI  20  
TAYLORVILLE    CLOUDY    32  31  98 E7        29.91F FOG     WCI  26  
$$

ILZ033-039-045-046-055>057-062-063-201100-
EAST-CENTRAL ILLINOIS
  
CITY           SKY/WX    TMP DP  RH WIND       PRES   REMARKS
CHAMPAIGN      CLOUDY    32  32 100 NE18      29.92F FOG     WCI  20  
DANVILLE*      MIX PCPN  32  31  98 E12       29.99F VSB 1   WCI  23  
RANTOUL*       DRIZZLE   31  31  99 E17       29.96F WCI  20          
MATTOON        LGT RAIN  33  33 100 E15G29    29.86F FOG     WCI  23  
PARIS*         MIX PCPN  34  33  95 NE12      30.00F WCI  25          
$$

ILZ079-100>102-201100-
SOUTHWEST ILLINOIS
  
CITY           SKY/WX    TMP DP  RH WIND       PRES   REMARKS
ALTON          CLOUDY    32  32 100 E5        29.89R WCI  27          
BELLEVILLE     CLOUDY    34  32  93 E3        29.90R                  
CAHOKIA*       CLOUDY    33  31  92 SE5       29.90R WCI  29          
SPARTA*        CLOUDY    33  33 100 E9        29.88F WCI  25          
$$

ILZ064>066-069>071-074>076-080>082-084>086-088>090-092>094-201100-
SOUTH-CENTRAL ILLINOIS
  
CITY           SKY/WX    TMP DP  RH WIND       PRES   REMARKS
CARBONDALE     LGT RAIN  35  34  96 E7        29.87F WCI  29          
CAIRO*         CLOUDY    41  41  99 E8        29.85F                  
EFFINGHAM*     CLOUDY    33  33  98 E12       29.90F FOG     WCI  24  
MARION         CLOUDY    35  35  98 E9        29.87F WCI  28          
MT. VERNON     CLOUDY    33  33 100 E10       29.90R WCI  25          
CENTRALIA*     CLOUDY    34  34 100 E8        29.88F WCI  27          
SALEM*         CLOUDY    34  33  96 E6        29.88F WCI  29          
METROPOLIS*    DRIZZLE   42  40  93 SE6       29.88F                  
$$

ILZ067-068-072-073-078-083-087-091-201100-
SOUTHEAST ILLINOIS
  
CITY           SKY/WX    TMP DP  RH WIND       PRES   REMARKS
LAWRENCEVILLE  RAIN      34  32  92 E14       29.94F FOG     WCI  25  
FLORA*         CLOUDY    34  33  97 E7        29.91F WCI  28          
FAIRFIELD*     CLOUDY    33  33 100 E7        29.89F WCI  27          
HARRISBURG*    LGT RAIN  36  36 100 E7        29.90R WCI  30          
ROBINSON*      MIX PCPN  32  32 100 E13       29.96F WCI  22          
CARMI*         CLOUDY    36  36 100 E9        29.89F WCI  29          
$$

ABBREVIATIONS USED IN REMARKS
   TC - TEMPERATURE IN CELSIUS
  WCI - WIND CHILL INDEX
   HX - HEAT INDEX
  VSB - VISIBILITY
$$